When you browse on this site, cookies collect data to enhance your experience and personalize the content and advertising you see.
Visit our Privacy Policy to learn more. By continuing to use the site, you agree to this use of cookies and data.
  • In Hungary
  • List of Countries
  • For 7 days
  • Water Temperature
  • Satellite Maps
  • Weather Map
  • News
  • Weather Widgets
  • user-avatar
    Login

    Hourly Weather Viedma

    Today, 22 March, Friday

    Time Temperature Precipitation Wind Pressure Humidity
    00:00 +16°C° 0 mm 6 mps 758 mmHg 59%
    01:00 +16°C° 0 mm 5 mps 758 mmHg 55%
    02:00 +16°C° 0 mm 5 mps 757 mmHg 51%
    03:00 +15°C° 0.1 mm 5 mps 757 mmHg 52%
    04:00 +15°C° 0.1 mm 5 mps 757 mmHg 53%
    05:00 +15°C° 0.1 mm 5 mps 757 mmHg 55%
    06:00 +15°C° 0 mm 5 mps 757 mmHg 55%
    07:00 +16°C° 0 mm 5 mps 757 mmHg 55%
    08:00 +16°C° 0 mm 5 mps 757 mmHg 55%
    09:00 +19°C° 0 mm 5 mps 757 mmHg 51%
    10:00 +20°C° 0 mm 4 mps 757 mmHg 46%
    11:00 +22°C° 0 mm 3 mps 757 mmHg 42%
    12:00 +24°C° 0 mm 3 mps 757 mmHg 38%
    13:00 +26°C° 0 mm 3 mps 757 mmHg 35%
    14:00 +27°C° 0 mm 2 mps 756 mmHg 31%
    15:00 +27°C° 0 mm 2 mps 756 mmHg 31%
    16:00 +27°C° 0 mm 3 mps 755 mmHg 31%
    17:00 +26°C° 0 mm 3 mps 755 mmHg 31%
    18:00 +25°C° 0 mm 2 mps 755 mmHg 37%
    19:00 +23°C° 0 mm 2 mps 755 mmHg 42%
    20:00 +21°C° 0 mm 2 mps 755 mmHg 47%
    21:00 +20°C° 0 mm 2 mps 755 mmHg 50%
    22:00 +20°C° 0 mm 2 mps 755 mmHg 52%
    23:00 +20°C° 0 mm 3 mps 755 mmHg 55%

    Tomorrow, 23 March, Saturday

    Time Temperature Precipitation Wind Pressure Humidity
    00:00 +20°C° 0 mm 3 mps 754 mmHg 55%
    01:00 +20°C° 0 mm 3 mps 754 mmHg 55%
    02:00 +20°C° 0 mm 3 mps 753 mmHg 54%
    03:00 +20°C° 0 mm 4 mps 753 mmHg 50%
    04:00 +20°C° 0 mm 4 mps 752 mmHg 46%
    05:00 +21°C° 0 mm 5 mps 752 mmHg 41%
    06:00 +21°C° 0 mm 6 mps 752 mmHg 39%
    07:00 +22°C° 0 mm 6 mps 751 mmHg 36%
    08:00 +22°C° 0 mm 7 mps 751 mmHg 33%
    09:00 +22°C° 0 mm 8 mps 752 mmHg 42%
    10:00 +21°C° 0 mm 8 mps 752 mmHg 52%
    11:00 +19°C° 0 mm 9 mps 752 mmHg 61%
    12:00 +21°C° 0 mm 9 mps 752 mmHg 56%
    13:00 +21°C° 0 mm 8 mps 752 mmHg 50%
    14:00 +22°C° 0 mm 8 mps 753 mmHg 45%
    15:00 +21°C° 0.1 mm 8 mps 753 mmHg 45%
    16:00 +20°C° 0.1 mm 8 mps 753 mmHg 45%
    17:00 +18°C° 0.1 mm 8 mps 754 mmHg 45%
    18:00 +17°C° 0 mm 9 mps 754 mmHg 50%
    19:00 +17°C° 0 mm 9 mps 754 mmHg 55%
    20:00 +17°C° 0 mm 9 mps 755 mmHg 60%
    21:00 +17°C° 0.1 mm 10 mps 755 mmHg 63%
    22:00 +16°C° 0.1 mm 11 mps 756 mmHg 66%
    23:00 +15°C° 0.1 mm 12 mps 756 mmHg 69%

    Day after tomorrow, 24 March, Sunday

    Time Temperature Precipitation Wind Pressure Humidity
    00:00 +16°C° 0.1 mm 11 mps 756 mmHg 68%
    01:00 +14°C° 0.1 mm 11 mps 757 mmHg 67%
    02:00 +14°C° 0.1 mm 11 mps 757 mmHg 66%
    03:00 +14°C° 0 mm 11 mps 758 mmHg 67%
    04:00 +14°C° 0 mm 11 mps 758 mmHg 68%
    05:00 +13°C° 0 mm 11 mps 758 mmHg 69%
    06:00 +14°C° 0 mm 11 mps 759 mmHg 69%
    07:00 +14°C° 0 mm 11 mps 759 mmHg 68%
    08:00 +14°C° 0 mm 11 mps 760 mmHg 68%
    09:00 +14°C° 0 mm 11 mps 760 mmHg 65%
    10:00 +16°C° 0 mm 11 mps 760 mmHg 63%
    11:00 +16°C° 0 mm 11 mps 761 mmHg 60%
    12:00 +16°C° 0 mm 10 mps 761 mmHg 62%
    13:00 +16°C° 0 mm 10 mps 761 mmHg 63%
    14:00 +16°C° 0 mm 9 mps 761 mmHg 65%
    15:00 +15°C° 0 mm 9 mps 762 mmHg 66%
    16:00 +15°C° 0 mm 8 mps 762 mmHg 66%
    17:00 +15°C° 0 mm 7 mps 762 mmHg 67%
    18:00 +15°C° 0 mm 7 mps 762 mmHg 67%
    19:00 +15°C° 0 mm 6 mps 763 mmHg 67%
    20:00 +14°C° 0 mm 6 mps 763 mmHg 67%
    21:00 +14°C° 0 mm 5 mps 763 mmHg 67%
    22:00 +14°C° 0 mm 5 mps 763 mmHg 67%
    23:00 +14°C° 0 mm 5 mps 764 mmHg 67%

    25 March, Monday

    Time Temperature Precipitation Wind Pressure Humidity
    00:00 +14°C° 0 mm 4 mps 764 mmHg 68%
    01:00 +13°C° 0 mm 4 mps 764 mmHg 68%
    02:00 +13°C° 0 mm 3 mps 763 mmHg 68%
    03:00 +13°C° 0 mm 3 mps 764 mmHg 69%
    04:00 +12°C° 0 mm 3 mps 764 mmHg 70%
    05:00 +12°C° 0 mm 3 mps 764 mmHg 70%
    06:00 +13°C° 0 mm 3 mps 764 mmHg 67%
    07:00 +13°C° 0 mm 3 mps 764 mmHg 64%
    08:00 +13°C° 0 mm 3 mps 765 mmHg 62%
    09:00 +14°C° 0 mm 3 mps 765 mmHg 60%
    10:00 +14°C° 0 mm 3 mps 766 mmHg 59%
    11:00 +14°C° 0 mm 3 mps 766 mmHg 58%
    12:00 +16°C° 0 mm 3 mps 766 mmHg 56%
    13:00 +16°C° 0 mm 3 mps 766 mmHg 54%
    14:00 +16°C° 0 mm 3 mps 766 mmHg 53%
    15:00 +16°C° 0 mm 3 mps 766 mmHg 53%
    16:00 +15°C° 0 mm 4 mps 766 mmHg 53%
    17:00 +15°C° 0 mm 4 mps 766 mmHg 53%
    18:00 +14°C° 0 mm 4 mps 766 mmHg 55%
    19:00 +14°C° 0 mm 4 mps 766 mmHg 57%
    20:00 +13°C° 0 mm 4 mps 767 mmHg 59%
    21:00 +13°C° 0 mm 3 mps 767 mmHg 60%
    22:00 +12°C° 0 mm 3 mps 768 mmHg 62%
    23:00 +12°C° 0 mm 3 mps 768 mmHg 64%

    26 March, Tuesday

    Time Temperature Precipitation Wind Pressure Humidity
    00:00 +13°C° 0 mm 2 mps 768 mmHg 64%
    01:00 +13°C° 0 mm 2 mps 768 mmHg 63%
    02:00 +13°C° 0 mm 2 mps 768 mmHg 63%
    03:00 +13°C° 0 mm 2 mps 769 mmHg 62%
    04:00 +13°C° 0 mm 2 mps 769 mmHg 62%
    05:00 +13°C° 0 mm 2 mps 769 mmHg 61%
    06:00 +14°C° 0 mm 2 mps 769 mmHg 60%
    07:00 +14°C° 0 mm 2 mps 769 mmHg 58%
    08:00 +14°C° 0 mm 3 mps 769 mmHg 56%
    09:00 +16°C° 0 mm 3 mps 770 mmHg 53%
    10:00 +17°C° 0 mm 3 mps 770 mmHg 50%
    11:00 +18°C° 0 mm 3 mps 770 mmHg 47%
    12:00 +18°C° 0 mm 4 mps 770 mmHg 49%
    13:00 +18°C° 0 mm 4 mps 770 mmHg 52%
    14:00 +18°C° 0 mm 4 mps 769 mmHg 54%
    15:00 +18°C° 0 mm 4 mps 769 mmHg 56%
    16:00 +17°C° 0 mm 5 mps 769 mmHg 57%
    17:00 +16°C° 0 mm 5 mps 769 mmHg 59%
    18:00 +16°C° 0 mm 5 mps 769 mmHg 64%
    19:00 +15°C° 0 mm 4 mps 769 mmHg 69%
    20:00 +14°C° 0 mm 4 mps 769 mmHg 74%
    21:00 +14°C° 0 mm 4 mps 769 mmHg 75%
    22:00 +14°C° 0 mm 3 mps 769 mmHg 76%
    23:00 +13°C° 0 mm 3 mps 769 mmHg 77%

    27 March, Wednesday

    Time Temperature Precipitation Wind Pressure Humidity
    00:00 +13°C° 0 mm 3 mps 769 mmHg 77%
    01:00 +13°C° 0 mm 3 mps 769 mmHg 78%
    02:00 +13°C° 0 mm 3 mps 768 mmHg 79%
    03:00 +13°C° 0 mm 4 mps 768 mmHg 80%
    04:00 +12°C° 0 mm 4 mps 768 mmHg 80%
    05:00 +12°C° 0 mm 4 mps 767 mmHg 80%
    06:00 +13°C° 0 mm 5 mps 767 mmHg 77%
    07:00 +14°C° 0 mm 6 mps 767 mmHg 73%
    08:00 +14°C° 0 mm 7 mps 767 mmHg 69%
    09:00 +16°C° 0 mm 7 mps 767 mmHg 63%
    10:00 +18°C° 0 mm 7 mps 767 mmHg 57%
    11:00 +20°C° 0 mm 7 mps 766 mmHg 51%
    12:00 +21°C° 0 mm 7 mps 766 mmHg 49%
    13:00 +22°C° 0 mm 7 mps 765 mmHg 46%
    14:00 +22°C° 0 mm 7 mps 764 mmHg 43%
    15:00 +23°C° 0 mm 7 mps 764 mmHg 43%
    16:00 +23°C° 0 mm 7 mps 763 mmHg 43%
    17:00 +23°C° 0 mm 7 mps 763 mmHg 42%
    18:00 +22°C° 0 mm 7 mps 763 mmHg 48%
    19:00 +21°C° 0 mm 7 mps 763 mmHg 54%
    20:00 +18°C° 0 mm 7 mps 762 mmHg 60%
    21:00 +20°C° 0 mm 7 mps 762 mmHg 59%
    22:00 +20°C° 0 mm 7 mps 762 mmHg 58%
    23:00 +20°C° 0 mm 7 mps 762 mmHg 57%
    Show more